EW6762 Weather Reports


Display with metric or nautical units.
time (UTC)temp
F
wind
direction
speed
MPH
gust
MPH
rain 1hr
in
rain 24hr
in
rain mn
in
humidity
%
barometer
mb
20260903195331 102 160 3.0 7.0 0.00 0.00 0.00 56 1016.7
20260903194324 101 92 1.0 8.0 0.00 0.00 0.00 56 1016.9
20260903193317 103 52 3.0 10.0 0.00 0.00 0.00 54 1016.9
20260903192317 103 101 4.0 8.0 0.00 0.00 0.00 54 1017.1
20260903191313 103 121 4.0 11.0 0.00 0.00 0.00 53 1017.1
20260903190334 103 157 3.0 8.0 0.00 0.00 0.00 54 1017.1
20260903185325 103 84 4.0 9.0 0.00 0.00 0.00 52 1017.2
20260903184326 104 54 3.0 5.0 0.00 0.00 0.00 52 1017.4
20260903183319 103 98 3.0 8.0 0.00 0.00 0.00 51 1017.5
20260903182313 102 128 3.0 8.0 0.00 0.00 0.00 52 1017.6
20260903181322 102 128 4.0 9.0 0.00 0.00 0.00 54 1017.6
20260903180330 101 119 3.0 8.0 0.00 0.00 0.00 56 1017.7
20260903175347 101 134 3.0 7.0 0.00 0.00 0.00 55 1017.8
20260903174328 103 214 2.0 6.0 0.00 0.00 0.00 56 1017.9
20260903173322 102 178 3.0 8.0 0.00 0.00 0.00 57 1018.0
20260903172316 102 107 1.0 8.0 0.00 0.00 0.00 54 1018.0
20260903171318 102 169 2.0 7.0 0.00 0.00 0.00 56 1018.1
20260903170310 103 109 2.0 6.0 0.00 0.00 0.00 57 1018.2
20260903165330 102 109 4.0 7.0 0.00 0.00 0.00 56 1018.4
20260903164320 102 36 3.0 7.0 0.00 0.00 0.00 57 1018.4
20260903163309 101 100 2.0 5.0 0.00 0.00 0.00 60 1018.5
20260903162326 101 53 2.0 6.0 0.00 0.00 0.00 60 1018.6
20260903161344 100 69 2.0 7.0 0.00 0.00 0.00 60 1018.7
20260903160313 99 165 3.0 5.0 0.00 0.00 0.00 62 1018.7
20260903155309 97 250 2.0 5.0 0.00 0.00 0.00 64 1018.7
20260903154324 97 194 1.0 7.0 0.00 0.00 0.00 63 1018.7
20260903153323 97 238 2.0 5.0 0.00 0.00 0.00 65 1018.7
20260903152311 95 155 2.0 5.0 0.00 0.00 0.00 67 1018.7
20260903151331 95 324 1.0 6.0 0.00 0.00 0.00 66 1018.7
20260903150324 94 214 3.0 4.0 0.00 0.00 0.00 67 1018.7
20260903145321 94 300 2.0 5.0 0.00 0.00 0.00 68 1018.7
20260903144317 93 267 3.0 5.0 0.00 0.00 0.00 68 1018.7
20260903143327 93 263 1.0 4.0 0.00 0.00 0.00 70 1018.7
20260903142347 92 252 2.0 4.0 0.00 0.00 0.00 69 1018.6
20260903141339 91 225 2.0 5.0 0.00 0.00 0.00 72 1018.6
20260903140309 90 295 3.0 8.0 0.00 0.00 0.00 72 1018.6
20260903135328 90 222 4.0 7.0 0.00 0.00 0.00 72 1018.5
20260903134320 89 237 3.0 8.0 0.00 0.00 0.00 72 1018.5
20260903133317 88 279 3.0 9.0 0.00 0.00 0.00 74 1018.5
20260903132327 88 274 5.0 8.0 0.00 0.00 0.00 75 1018.6
20260903131325 87 244 3.0 9.0 0.00 0.00 0.00 75 1018.6
20260903130316 86 248 6.0 10.0 0.00 0.00 0.00 78 1018.7
20260903125311 85 232 4.0 7.0 0.00 0.00 0.00 79 1018.7
20260903124335 84 233 3.0 5.0 0.00 0.00 0.00 81 1018.8
20260903123309 83 273 2.0 5.0 0.00 0.00 0.00 83 1019.0
20260903122312 82 204 2.0 4.0 0.00 0.00 0.00 85 1019.0
20260903121337 82 207 2.0 4.0 0.00 0.00 0.00 85 1018.9
20260903120330 81 231 2.0 4.0 0.00 0.00 0.00 86 1019.0
20260903115311 81 225 2.0 5.0 0.00 0.00 0.00 87 1018.9
20260903114323 80 248 3.0 5.0 0.00 0.00 0.00 87 1018.8
20260903113342 80 229 2.0 3.0 0.00 0.00 0.00 88 1018.6
20260903112341 80 212 3.0 6.0 0.00 0.00 0.00 88 1018.6
20260903111338 80 227 3.0 5.0 0.00 0.00 0.00 88 1018.6
20260903110320 80 246 2.0 4.0 0.00 0.00 0.00 88 1018.6
20260903105332 80 167 2.0 3.0 0.00 0.00 0.00 88 1018.6
20260903104311 79 192 2.0 5.0 0.00 0.00 0.00 88 1018.4
20260903103331 80 204 2.0 5.0 0.00 0.00 0.00 88 1018.4
20260903102321 80 215 2.0 5.0 0.00 0.00 0.00 88 1018.2
20260903101341 80 198 2.0 4.0 0.00 0.00 0.00 87 1018.1
20260903100341 80 181 3.0 3.0 0.00 0.00 0.00 87 1018.1
20260903095318 80 187 2.0 4.0 0.00 0.00 0.00 87 1018.1
20260903094314 80 194 2.0 4.0 0.00 0.00 0.00 86 1018.1
20260903093352 80 211 2.0 3.0 0.00 0.00 0.00 86 1018.0
20260903092326 80 194 2.0 6.0 0.00 0.00 0.00 86 1017.9
20260903091328 81 178 3.0 5.0 0.00 0.00 0.00 86 1017.9
20260903090324 81 167 3.0 4.0 0.00 0.00 0.00 86 1017.8
20260903085320 81 219 3.0 7.0 0.00 0.00 0.00 86 1017.8
20260903084322 80 201 2.0 5.0 0.00 0.00 0.00 86 1017.8
20260903083316 80 143 2.0 5.0 0.00 0.00 0.00 86 1017.8
20260903082311 80 104 3.0 6.0 0.00 0.00 0.00 86 1017.7
20260903081311 80 190 2.0 5.0 0.00 0.00 0.00 86 1017.6
20260903080327 80 155 2.0 5.0 0.00 0.00 0.00 86 1017.6
20260903075349 81 220 2.0 5.0 0.00 0.00 0.00 86 1017.6
20260903074322 81 136 2.0 5.0 0.00 0.00 0.00 86 1017.7
20260903073322 81 129 2.0 5.0 0.00 0.00 0.00 86 1017.6
20260903072315 81 146 2.0 5.0 0.00 0.00 0.00 85 1017.7
20260903071334 81 181 2.0 3.0 0.00 0.00 0.00 85 1017.6
20260903070349 82 148 2.0 4.0 0.00 0.00 0.00 85 1017.6
20260903065311 82 178 2.0 4.0 0.00 0.00 0.00 84 1017.4
20260903064323 82 160 1.0 3.0 0.00 0.00 0.00 84 1017.3
20260903063326 82 134 2.0 4.0 0.00 0.00 0.00 83 1017.3
20260903062318 83 173 2.0 4.0 0.00 0.00 0.00 83 1017.3
20260903061311 83 82 2.0 5.0 0.00 0.00 0.00 83 1017.5
20260903060328 83 186 1.0 3.0 0.00 0.00 0.00 82 1017.6
20260903055321 83 130 1.0 3.0 0.00 0.00 0.00 82 1017.6
20260903054320 84 108 2.0 3.0 0.00 0.00 0.00 81 1017.6
20260903053315 84 179 2.0 4.0 0.00 0.00 0.00 81 1017.7
20260903052333 84 72 2.0 5.0 0.00 0.00 0.00 80 1017.7
20260903051326 85 157 2.0 7.0 0.00 0.00 0.00 80 1017.7
20260903050327 85 131 4.0 7.0 0.00 0.00 0.00 80 1017.7
20260903045340 85 145 2.0 5.0 0.00 0.00 0.00 80 1017.7
20260903044317 85 194 2.0 5.0 0.00 0.00 0.00 80 1017.8
20260903043311 85 225 3.0 6.0 0.00 0.00 0.00 80 1017.7
20260903042328 86 150 4.0 7.0 0.00 0.00 0.00 80 1017.7
20260903041321 86 76 2.0 4.0 0.00 0.00 0.00 80 1017.7
20260903040313 86 153 3.0 6.0 0.00 0.00 0.00 79 1017.7
20260903035314 86 136 3.0 8.0 0.00 0.00 0.00 79 1017.8
20260903034313 87 179 4.0 7.0 0.00 0.00 0.00 79 1017.8
20260903033333 87 170 3.0 6.0 0.00 0.00 0.00 79 1017.8
20260903032327 87 149 3.0 5.0 0.00 0.00 0.00 78 1017.8
20260903031331 88 127 3.0 5.0 0.00 0.00 0.00 78 1017.6
20260903030346 88 200 2.0 7.0 0.00 0.00 0.00 77 1017.5
20260903025329 88 159 3.0 6.0 0.00 0.00 0.00 77 1017.3
20260903024325 88 146 3.0 6.0 0.00 0.00 0.00 77 1017.1
20260903023348 88 200 3.0 8.0 0.00 0.00 0.00 76 1017.2
20260903022321 88 140 4.0 8.0 0.00 0.00 0.00 76 1017.1
20260903021344 88 142 5.0 9.0 0.00 0.00 0.00 75 1017.2
20260903020338 88 126 7.0 9.0 0.00 0.00 0.00 74 1017.6
20260903015320 88 142 4.0 7.0 0.00 0.00 0.00 73 1018.0
20260903014314 88 152 3.0 4.0 0.00 0.00 0.00 72 1018.2
20260903013315 89 146 1.0 3.0 0.00 0.00 0.00 72 1018.3
20260903012313 89 281 1.0 2.0 0.00 0.00 0.00 70 1018.4
20260903011337 89 80 1.0 2.0 0.00 0.00 0.00 70 1018.3
20260903010339 90 80 0.0 2.0 0.00 0.00 0.00 69 1018.1
20260903005336 90 81 1.0 2.0 0.00 0.00 0.00 69 1017.9
20260903004314 90 188 1.0 2.0 0.00 0.00 0.00 68 1017.4
20260903003310 90 165 1.0 3.0 0.00 0.00 0.00 69 1017.3
20260903002308 90 184 1.0 3.0 0.00 0.00 0.00 70 1017.2
20260903001313 91 180 2.0 3.0 0.00 0.00 0.00 71 1017.2
20260903000312 91 175 0.0 2.0 0.00 0.00 0.00 70 1017.0
20260902235334 92 154 1.0 2.0 0.00 0.00 0.00 69 1017.0
20260902234328 93 86 1.0 2.0 0.00 0.00 0.00 68 1017.2
20260902233335 93 51 1.0 1.0 0.00 0.00 0.00 67 1017.0
20260902232331 94 71 1.0 2.0 0.00 0.00 0.00 66 1017.0
20260902231328 94 101 0.0 1.0 0.00 0.00 0.00 65 1017.0
20260902230331 95 124 0.0 3.0 0.00 0.00 0.00 65 1017.1
20260902225347 97 78 1.0 3.0 0.00 0.00 0.00 62 1017.0
20260902224330 98 61 1.0 3.0 0.00 0.00 0.00 59 1017.0
20260902223323 99 47 1.0 4.0 0.00 0.00 0.00 57 1017.0
20260902222324 100 35 2.0 4.0 0.00 0.00 0.00 55 1016.9
20260902221320 101 9 1.0 3.0 0.00 0.00 0.00 52 1016.8
20260902220316 102 34 2.0 4.0 0.00 0.00 0.00 51 1016.8
20260902215317 103 17 1.0 5.0 0.00 0.00 0.00 50 1016.9
20260902214309 104 44 2.0 5.0 0.00 0.00 0.00 48 1017.0
20260902213326 104 108 2.0 5.0 0.00 0.00 0.00 49 1017.0
20260902212323 104 85 3.0 5.0 0.00 0.00 0.00 50 1016.9
20260902211342 104 355 3.0 6.0 0.00 0.00 0.00 48 1017.1
20260902210318 104 31 3.0 5.0 0.00 0.00 0.00 50 1017.2
20260902205319 104 9 2.0 6.0 0.00 0.00 0.00 52 1017.2
20260902204314 104 63 4.0 7.0 0.00 0.00 0.00 51 1017.2
20260902203312 103 28 2.0 7.0 0.00 0.00 0.00 53 1017.2
20260902202330 103 84 4.0 6.0 0.00 0.00 0.00 54 1017.2
20260902201349 103 180 2.0 6.0 0.00 0.00 0.00 54 1017.2
20260902200322 102 15 2.0 8.0 0.00 0.00 0.00 55 1017.4